Time,TemperatureF,DewpointF,PressureIn,WindDirection,WindDirectionDegrees,WindSpeedMPH,WindSpeedGustMPH,Humidity,HourlyPrecipIn,Conditions,Clouds,dailyrainin,SoftwareType,DateUTC
2013-02-01 00:00:00,29.8,21.6,30.09,SSW,193,0.0,5.0,71,0.00,,,0.00,meteohub,2013-02-01 05:00:00,
2013-02-01 00:01:00,29.8,21.6,30.09,West,278,0.0,7.0,71,0.00,,,0.00,meteohub,2013-02-01 05:01:00,
2013-02-01 00:06:00,29.8,21.6,30.09,West,262,1.0,7.0,71,0.00,,,0.00,meteohub,2013-02-01 05:06:00,
2013-02-01 00:11:00,29.7,21.4,30.09,WSW,240,0.0,7.0,71,0.00,,,0.00,meteohub,2013-02-01 05:11:00,
2013-02-01 00:16:00,30.0,21.7,30.09,SW,225,4.0,10.0,71,0.00,,,0.00,meteohub,2013-02-01 05:16:00,
2013-02-01 00:21:00,30.2,21.9,30.09,WNW,293,3.0,10.0,71,0.00,,,0.00,meteohub,2013-02-01 05:21:00,
2013-02-01 00:26:00,30.2,21.9,30.08,WSW,242,4.0,10.0,71,0.00,,,0.00,meteohub,2013-02-01 05:26:00,
2013-02-01 00:31:00,30.4,21.7,30.08,West,261,2.0,8.0,70,0.00,,,0.00,meteohub,2013-02-01 05:31:00,
2013-02-01 00:36:00,30.4,21.7,30.08,SSW,198,2.0,8.0,70,0.00,,,0.00,meteohub,2013-02-01 05:36:00,
2013-02-01 00:41:00,30.2,21.9,30.08,WSW,255,3.0,8.0,71,0.00,,,0.00,meteohub,2013-02-01 05:41:00,
2013-02-01 00:46:00,30.0,21.7,30.09,SW,228,1.0,9.0,71,0.00,,,0.00,meteohub,2013-02-01 05:46:00,
2013-02-01 00:51:00,29.8,21.9,30.08,SW,215,1.0,9.0,72,0.00,,,0.00,meteohub,2013-02-01 05:51:00,
2013-02-01 00:56:00,29.8,21.9,30.09,West,277,0.0,8.0,72,0.00,,,0.00,meteohub,2013-02-01 05:56:00,
2013-02-01 01:01:00,29.8,21.9,30.09,WSW,253,0.0,6.0,72,0.00,,,0.00,meteohub,2013-02-01 06:01:00,
2013-02-01 01:06:00,29.8,21.9,30.09,SW,231,3.0,10.0,72,0.00,,,0.00,meteohub,2013-02-01 06:06:00,
2013-02-01 01:11:00,30.0,22.1,30.08,West,274,3.0,10.0,72,0.00,,,0.00,meteohub,2013-02-01 06:11:00,
2013-02-01 01:16:00,30.4,22.1,30.08,WSW,252,0.0,10.0,71,0.00,,,0.00,meteohub,2013-02-01 06:16:00,
2013-02-01 01:21:00,30.7,22.5,30.08,WSW,253,2.0,6.0,71,0.00,,,0.00,meteohub,2013-02-01 06:21:00,
2013-02-01 01:26:00,31.3,22.6,30.08,West,273,6.0,6.0,70,0.00,,,0.00,meteohub,2013-02-01 06:26:00,
2013-02-01 01:31:00,32.0,22.6,30.07,WSW,240,5.0,10.0,68,0.00,,,0.00,meteohub,2013-02-01 06:31:00,
2013-02-01 01:36:00,32.2,22.8,30.06,WSW,255,4.0,10.0,68,0.00,,,0.00,meteohub,2013-02-01 06:36:00,
2013-02-01 01:41:00,32.4,22.6,30.06,WSW,238,1.0,10.0,67,0.00,,,0.00,meteohub,2013-02-01 06:41:00,
2013-02-01 01:46:00,32.7,23.0,30.06,West,260,2.0,10.0,67,0.00,,,0.00,meteohub,2013-02-01 06:46:00,
2013-02-01 01:51:00,33.1,23.4,30.06,WSW,257,5.0,10.0,67,0.00,,,0.00,meteohub,2013-02-01 06:51:00,
2013-02-01 01:56:00,33.3,23.2,30.06,West,279,4.0,10.0,66,0.00,,,0.00,meteohub,2013-02-01 06:56:00,
2013-02-01 02:01:00,33.6,23.2,30.06,West,262,5.0,11.0,65,0.00,,,0.00,meteohub,2013-02-01 07:01:00,
2013-02-01 02:06:00,33.6,23.2,30.06,SSW,203,2.0,11.0,65,0.00,,,0.00,meteohub,2013-02-01 07:06:00,
2013-02-01 02:11:00,33.4,23.4,30.05,WSW,256,9.0,11.0,66,0.00,,,0.00,meteohub,2013-02-01 07:11:00,
2013-02-01 02:16:00,33.6,23.5,30.06,WNW,293,3.0,11.0,66,0.00,,,0.00,meteohub,2013-02-01 07:16:00,
2013-02-01 02:21:00,33.6,23.5,30.06,West,262,5.0,9.0,66,0.00,,,0.00,meteohub,2013-02-01 07:21:00,
2013-02-01 02:26:00,33.4,23.4,30.05,West,266,5.0,9.0,66,0.00,,,0.00,meteohub,2013-02-01 07:26:00,
2013-02-01 02:31:00,33.4,23.7,30.06,West,272,1.0,11.0,67,0.00,,,0.00,meteohub,2013-02-01 07:31:00,
2013-02-01 02:37:00,33.4,23.7,30.05,SW,229,6.0,11.0,67,0.00,,,0.00,meteohub,2013-02-01 07:37:00,
2013-02-01 02:42:00,33.4,23.7,30.05,SW,229,2.0,13.0,67,0.00,,,0.00,meteohub,2013-02-01 07:42:00,
2013-02-01 02:47:00,33.4,24.1,30.05,SW,219,12.0,13.0,68,0.00,,,0.00,meteohub,2013-02-01 07:47:00,
2013-02-01 02:52:00,33.3,23.9,30.05,West,276,3.0,16.0,68,0.00,,,0.00,meteohub,2013-02-01 07:52:00,
2013-02-01 02:57:00,33.1,23.7,30.05,South,183,3.0,16.0,68,0.00,,,0.00,meteohub,2013-02-01 07:57:00,
2013-02-01 03:02:00,33.3,24.3,30.04,WSW,250,6.0,16.0,69,0.00,,,0.00,meteohub,2013-02-01 08:02:00,
2013-02-01 03:07:00,33.6,24.3,30.04,West,266,6.0,12.0,68,0.00,,,0.00,meteohub,2013-02-01 08:07:00,
2013-02-01 03:12:00,33.6,24.3,30.04,SW,215,4.0,12.0,68,0.00,,,0.00,meteohub,2013-02-01 08:12:00,
2013-02-01 03:17:00,34.0,24.6,30.04,SSW,193,8.0,13.0,68,0.00,,,0.00,meteohub,2013-02-01 08:17:00,
2013-02-01 03:22:00,34.3,24.8,30.03,WSW,256,8.0,13.0,68,0.00,,,0.00,meteohub,2013-02-01 08:22:00,
2013-02-01 03:27:00,34.7,25.2,30.03,WSW,250,12.0,15.0,68,0.00,,,0.00,meteohub,2013-02-01 08:27:00,
2013-02-01 03:32:00,34.9,25.0,30.02,SW,235,4.0,15.0,67,0.00,,,0.00,meteohub,2013-02-01 08:32:00,
2013-02-01 03:37:00,35.1,25.2,30.02,WSW,245,12.0,15.0,67,0.00,,,0.00,meteohub,2013-02-01 08:37:00,
2013-02-01 03:42:00,35.2,25.3,30.02,WNW,290,3.0,15.0,67,0.00,,,0.00,meteohub,2013-02-01 08:42:00,
2013-02-01 03:47:00,35.2,25.3,30.02,NW,309,5.0,15.0,67,0.00,,,0.00,meteohub,2013-02-01 08:47:00,
2013-02-01 03:52:00,35.4,25.9,30.01,SW,222,6.0,12.0,68,0.00,,,0.00,meteohub,2013-02-01 08:52:00,
2013-02-01 03:57:00,35.6,25.7,30.01,West,260,6.0,12.0,67,0.00,,,0.00,meteohub,2013-02-01 08:57:00,
2013-02-01 04:02:00,35.4,25.9,30.01,WSW,237,3.0,14.0,68,0.00,,,0.00,meteohub,2013-02-01 09:02:00,
2013-02-01 04:07:00,35.4,25.9,30.01,SSE,166,0.0,17.0,68,0.00,,,0.00,meteohub,2013-02-01 09:07:00,
2013-02-01 04:12:00,35.6,26.1,30.01,WNW,297,6.0,17.0,68,0.00,,,0.00,meteohub,2013-02-01 09:12:00,
2013-02-01 04:17:00,35.4,25.9,30.01,South,190,3.0,12.0,68,0.00,,,0.00,meteohub,2013-02-01 09:17:00,
2013-02-01 04:22:00,35.4,26.2,30.01,WSW,238,1.0,12.0,69,0.00,,,0.00,meteohub,2013-02-01 09:22:00,
2013-02-01 04:27:00,35.4,26.2,30.01,SW,226,3.0,12.0,69,0.00,,,0.00,meteohub,2013-02-01 09:27:00,
2013-02-01 04:32:00,35.4,26.6,30.01,West,259,8.0,12.0,70,0.00,,,0.00,meteohub,2013-02-01 09:32:00,
2013-02-01 04:37:00,35.2,26.4,30.01,NNW,339,3.0,14.0,70,0.00,,,0.00,meteohub,2013-02-01 09:37:00,
2013-02-01 04:42:00,35.2,26.8,30.02,West,274,3.0,14.0,71,0.00,,,0.00,meteohub,2013-02-01 09:42:00,
2013-02-01 04:47:00,35.1,27.3,30.02,WSW,238,10.0,14.0,73,0.00,,,0.00,meteohub,2013-02-01 09:47:00,
2013-02-01 04:52:00,34.5,28.4,30.03,WSW,249,12.0,13.0,78,0.00,,,0.00,meteohub,2013-02-01 09:52:00,
2013-02-01 04:57:00,33.6,28.8,30.04,WSW,250,10.0,13.0,82,0.00,,,0.00,meteohub,2013-02-01 09:57:00,
2013-02-01 05:02:00,32.7,28.8,30.04,West,266,3.0,19.0,85,0.00,,,0.00,meteohub,2013-02-01 10:02:00,
2013-02-01 05:07:00,32.4,28.6,30.04,SW,235,4.0,19.0,86,0.00,,,0.00,meteohub,2013-02-01 10:07:00,
2013-02-01 05:12:00,32.0,28.0,30.04,West,260,5.0,19.0,85,0.00,,,0.00,meteohub,2013-02-01 10:12:00,
2013-02-01 05:17:00,31.8,27.3,30.05,NW,321,4.0,10.0,83,0.00,,,0.00,meteohub,2013-02-01 10:17:00,
2013-02-01 05:22:00,31.6,26.4,30.05,SW,225,3.0,12.0,81,0.00,,,0.00,meteohub,2013-02-01 10:22:00,
2013-02-01 05:27:00,31.5,25.7,30.04,NW,305,3.0,14.0,79,0.00,,,0.00,meteohub,2013-02-01 10:27:00,
2013-02-01 05:32:00,31.3,25.5,30.05,West,271,16.0,16.0,79,0.00,,,0.00,meteohub,2013-02-01 10:32:00,
2013-02-01 05:37:00,31.3,24.6,30.06,SW,228,5.0,16.0,76,0.00,,,0.00,meteohub,2013-02-01 10:37:00,
2013-02-01 05:42:00,30.9,24.3,30.06,NW,313,4.0,16.0,76,0.00,,,0.00,meteohub,2013-02-01 10:42:00,
2013-02-01 05:47:00,30.9,23.4,30.05,NNW,339,2.0,16.0,73,0.00,,,0.00,meteohub,2013-02-01 10:47:00,
2013-02-01 05:52:00,30.9,23.5,30.06,East,84,3.0,14.0,74,0.00,,,0.00,meteohub,2013-02-01 10:52:00,
2013-02-01 05:57:00,30.7,22.8,30.06,NNW,340,11.0,14.0,72,0.00,,,0.00,meteohub,2013-02-01 10:57:00,
2013-02-01 06:02:00,30.6,22.3,30.07,SW,236,7.0,14.0,71,0.00,,,0.00,meteohub,2013-02-01 11:02:00,
2013-02-01 06:07:00,30.4,21.4,30.06,SSW,203,0.0,14.0,69,0.00,,,0.00,meteohub,2013-02-01 11:07:00,
2013-02-01 06:12:00,30.0,20.7,30.06,West,263,13.0,14.0,68,0.00,,,0.00,meteohub,2013-02-01 11:12:00,
2013-02-01 06:17:00,29.7,19.0,30.07,WSW,253,11.0,17.0,64,0.00,,,0.00,meteohub,2013-02-01 11:17:00,
2013-02-01 06:22:00,29.5,17.2,30.08,SW,228,8.0,17.0,60,0.00,,,0.00,meteohub,2013-02-01 11:22:00,
2013-02-01 06:27:00,28.9,14.4,30.09,NW,315,1.0,18.0,54,0.00,,,0.00,meteohub,2013-02-01 11:27:00,
2013-02-01 06:32:00,28.8,13.3,30.09,ESE,102,6.0,20.0,52,0.00,,,0.00,meteohub,2013-02-01 11:32:00,
2013-02-01 06:37:00,28.6,13.1,30.09,WSW,238,6.0,20.0,52,0.00,,,0.00,meteohub,2013-02-01 11:37:00,
2013-02-01 06:42:00,28.2,13.3,30.10,NW,321,6.0,15.0,53,0.00,,,0.00,meteohub,2013-02-01 11:42:00,
2013-02-01 06:47:00,28.0,13.1,30.11,ENE,62,4.0,15.0,53,0.00,,,0.00,meteohub,2013-02-01 11:47:00,
2013-02-01 06:52:00,27.7,12.4,30.11,SW,221,6.0,15.0,52,0.00,,,0.00,meteohub,2013-02-01 11:52:00,
2013-02-01 06:57:00,27.3,12.4,30.11,NNE,29,4.0,15.0,53,0.00,,,0.00,meteohub,2013-02-01 11:57:00,
2013-02-01 07:02:00,27.0,11.7,30.10,NNE,18,0.0,13.0,52,0.00,,,0.00,meteohub,2013-02-01 12:02:00,
2013-02-01 07:07:00,26.8,11.5,30.10,SW,232,4.0,12.0,52,0.00,,,0.00,meteohub,2013-02-01 12:07:00,
2013-02-01 07:12:00,26.2,10.6,30.11,West,280,2.0,12.0,51,0.00,,,0.00,meteohub,2013-02-01 12:12:00,
2013-02-01 07:17:00,25.9,11.1,30.11,NW,315,1.0,12.0,53,0.00,,,0.00,meteohub,2013-02-01 12:17:00,
2013-02-01 07:22:00,25.7,11.3,30.11,WSW,238,2.0,12.0,54,0.00,,,0.00,meteohub,2013-02-01 12:22:00,
2013-02-01 07:27:00,25.3,10.9,30.12,WNW,288,1.0,7.0,54,0.00,,,0.00,meteohub,2013-02-01 12:27:00,
2013-02-01 07:32:00,25.2,11.3,30.12,West,277,1.0,7.0,55,0.00,,,0.00,meteohub,2013-02-01 12:32:00,
2013-02-01 07:37:00,25.2,11.3,30.12,WNW,289,3.0,7.0,55,0.00,,,0.00,meteohub,2013-02-01 12:37:00,
2013-02-01 07:42:00,25.0,9.9,30.13,SSE,167,0.0,6.0,52,0.00,,,0.00,meteohub,2013-02-01 12:42:00,
2013-02-01 07:47:00,25.3,7.0,30.13,West,280,3.0,6.0,45,0.00,,,0.00,meteohub,2013-02-01 12:47:00,
2013-02-01 07:52:00,25.5,5.5,30.14,North,5,2.0,11.0,42,0.00,,,0.00,meteohub,2013-02-01 12:52:00,
2013-02-01 07:57:00,25.5,2.3,30.14,WNW,289,1.0,11.0,36,0.00,,,0.00,meteohub,2013-02-01 12:57:00,
2013-02-01 08:02:00,25.5,2.3,30.15,WNW,284,1.0,11.0,36,0.00,,,0.00,meteohub,2013-02-01 13:02:00,
2013-02-01 08:08:00,25.3,1.6,30.16,NNW,344,2.0,8.0,35,0.00,,,0.00,meteohub,2013-02-01 13:08:00,
2013-02-01 08:13:00,25.3,1.6,30.16,NW,316,0.0,8.0,35,0.00,,,0.00,meteohub,2013-02-01 13:13:00,
2013-02-01 08:18:00,25.3,0.3,30.16,WNW,291,1.0,11.0,33,0.00,,,0.00,meteohub,2013-02-01 13:18:00,
2013-02-01 08:23:00,25.3,0.3,30.17,NW,315,4.0,11.0,33,0.00,,,0.00,meteohub,2013-02-01 13:23:00,
2013-02-01 08:28:00,25.3,-0.4,30.17,NW,322,2.0,11.0,32,0.00,,,0.00,meteohub,2013-02-01 13:28:00,
2013-02-01 08:33:00,25.3,-0.4,30.17,WNW,291,0.0,9.0,32,0.00,,,0.00,meteohub,2013-02-01 13:33:00,
2013-02-01 08:38:00,25.5,-2.4,30.17,NE,39,6.0,8.0,29,0.00,,,0.00,meteohub,2013-02-01 13:38:00,
2013-02-01 08:43:00,25.7,-2.2,30.18,NW,318,5.0,11.0,29,0.00,,,0.00,meteohub,2013-02-01 13:43:00,
2013-02-01 08:48:00,25.9,-2.7,30.18,NNE,25,6.0,18.0,28,0.00,,,0.00,meteohub,2013-02-01 13:48:00,
2013-02-01 08:53:00,25.9,-3.5,30.18,NNW,333,8.0,18.0,27,0.00,,,0.00,meteohub,2013-02-01 13:53:00,
2013-02-01 08:58:00,25.9,-3.5,30.18,North,359,4.0,18.0,27,0.00,,,0.00,meteohub,2013-02-01 13:58:00,
2013-02-01 09:03:00,26.1,-2.6,30.18,North,3,4.0,17.0,28,0.00,,,0.00,meteohub,2013-02-01 14:03:00,
2013-02-01 09:08:00,26.1,-2.6,30.19,NW,325,4.0,17.0,28,0.00,,,0.00,meteohub,2013-02-01 14:08:00,
2013-02-01 09:13:00,26.2,-1.7,30.19,NNE,25,0.0,17.0,29,0.00,,,0.00,meteohub,2013-02-01 14:13:00,
2013-02-01 09:18:00,26.2,-1.7,30.19,SSE,159,2.0,13.0,29,0.00,,,0.00,meteohub,2013-02-01 14:18:00,
2013-02-01 09:23:00,26.2,-2.4,30.21,WNW,295,1.0,13.0,28,0.00,,,0.00,meteohub,2013-02-01 14:23:00,
2013-02-01 09:28:00,26.4,-2.2,30.21,WNW,295,4.0,11.0,28,0.00,,,0.00,meteohub,2013-02-01 14:28:00,
2013-02-01 09:33:00,26.4,-2.2,30.21,North,356,3.0,10.0,28,0.00,,,0.00,meteohub,2013-02-01 14:33:00,
2013-02-01 09:38:00,26.8,-1.3,30.21,NNE,23,1.0,10.0,29,0.00,,,0.00,meteohub,2013-02-01 14:38:00,
2013-02-01 09:43:00,26.8,-2.0,30.22,NE,55,8.0,8.0,28,0.00,,,0.00,meteohub,2013-02-01 14:43:00,
2013-02-01 09:48:00,26.8,-1.3,30.22,West,268,1.0,11.0,29,0.00,,,0.00,meteohub,2013-02-01 14:48:00,
2013-02-01 09:53:00,27.0,-1.1,30.22,West,265,0.0,15.0,29,0.00,,,0.00,meteohub,2013-02-01 14:53:00,
2013-02-01 09:58:00,26.8,-2.0,30.23,NNE,13,8.0,15.0,28,0.00,,,0.00,meteohub,2013-02-01 14:58:00,
2013-02-01 10:03:00,26.8,-1.3,30.23,NNE,13,4.0,12.0,29,0.00,,,0.00,meteohub,2013-02-01 15:03:00,
2013-02-01 10:08:00,26.6,-1.3,30.23,NNE,20,4.0,12.0,29,0.00,,,0.00,meteohub,2013-02-01 15:08:00,
2013-02-01 10:13:00,27.0,-0.4,30.24,NE,55,6.0,15.0,30,0.00,,,0.00,meteohub,2013-02-01 15:13:00,
2013-02-01 10:18:00,26.8,-2.0,30.24,WNW,300,1.0,15.0,28,0.00,,,0.00,meteohub,2013-02-01 15:18:00,
2013-02-01 10:23:00,27.1,-0.2,30.25,North,5,1.0,15.0,30,0.00,,,0.00,meteohub,2013-02-01 15:23:00,
2013-02-01 10:28:00,27.0,-1.1,30.25,NE,45,3.0,10.0,29,0.00,,,0.00,meteohub,2013-02-01 15:28:00,
2013-02-01 10:33:00,26.8,-0.6,30.25,NE,36,14.0,14.0,30,0.00,,,0.00,meteohub,2013-02-01 15:33:00,
2013-02-01 10:38:00,26.8,-0.6,30.25,ENE,58,6.0,14.0,30,0.00,,,0.00,meteohub,2013-02-01 15:38:00,
2013-02-01 10:43:00,27.1,-1.7,30.25,NE,47,7.0,14.0,28,0.00,,,0.00,meteohub,2013-02-01 15:43:00,
2013-02-01 10:48:00,27.0,-0.4,30.25,NW,325,4.0,15.0,30,0.00,,,0.00,meteohub,2013-02-01 15:48:00,
2013-02-01 10:53:00,27.3,-0.8,30.25,NE,46,7.0,15.0,29,0.00,,,0.00,meteohub,2013-02-01 15:53:00,
2013-02-01 10:58:00,27.3,0.0,30.25,NNE,27,7.0,15.0,30,0.00,,,0.00,meteohub,2013-02-01 15:58:00,
2013-02-01 11:03:00,27.3,-0.8,30.25,NNE,25,10.0,15.0,29,0.00,,,0.00,meteohub,2013-02-01 16:03:00,
2013-02-01 11:09:00,27.3,0.0,30.25,NNE,29,5.0,15.0,30,0.00,,,0.00,meteohub,2013-02-01 16:09:00,
2013-02-01 11:14:00,27.7,-0.4,30.25,NNE,29,4.0,12.0,29,0.00,,,0.00,meteohub,2013-02-01 16:14:00,
2013-02-01 11:19:00,27.9,1.2,30.26,North,5,3.0,13.0,31,0.00,,,0.00,meteohub,2013-02-01 16:19:00,
2013-02-01 11:24:00,28.2,0.7,30.27,NNE,29,8.0,13.0,30,0.00,,,0.00,meteohub,2013-02-01 16:24:00,
2013-02-01 11:29:00,28.2,0.0,30.27,NNE,19,6.0,13.0,29,0.00,,,0.00,meteohub,2013-02-01 16:29:00,
2013-02-01 11:34:00,28.0,-0.2,30.26,ENE,72,0.0,11.0,29,0.00,,,0.00,meteohub,2013-02-01 16:34:00,
2013-02-01 11:39:00,28.6,0.3,30.27,NNE,16,2.0,11.0,29,0.00,,,0.00,meteohub,2013-02-01 16:39:00,
2013-02-01 11:44:00,28.8,0.5,30.27,NE,55,3.0,11.0,29,0.00,,,0.00,meteohub,2013-02-01 16:44:00,
2013-02-01 11:49:00,29.1,0.9,30.27,East,86,4.0,9.0,29,0.00,,,0.00,meteohub,2013-02-01 16:49:00,
2013-02-01 11:54:00,29.3,1.0,30.26,NE,38,5.0,9.0,29,0.00,,,0.00,meteohub,2013-02-01 16:54:00,
2013-02-01 11:59:00,29.1,1.6,30.27,NE,53,2.0,9.0,30,0.00,,,0.00,meteohub,2013-02-01 16:59:00,
2013-02-01 12:04:00,29.1,4.8,30.27,NE,54,9.0,10.0,35,0.00,,,0.00,meteohub,2013-02-01 17:04:00,
2013-02-01 12:09:00,28.6,3.7,30.27,East,82,5.0,10.0,34,0.00,,,0.00,meteohub,2013-02-01 17:09:00,
2013-02-01 12:14:00,28.2,3.4,30.27,NE,40,4.0,12.0,34,0.00,,,0.00,meteohub,2013-02-01 17:14:00,
2013-02-01 12:19:00,28.6,4.5,30.28,NNE,30,7.0,14.0,35,0.00,,,0.00,meteohub,2013-02-01 17:19:00,
2013-02-01 12:24:00,28.8,3.9,30.27,NE,49,4.0,14.0,34,0.00,,,0.00,meteohub,2013-02-01 17:24:00,
2013-02-01 12:29:00,28.8,4.5,30.26,North,356,5.0,14.0,35,0.00,,,0.00,meteohub,2013-02-01 17:29:00,
2013-02-01 12:34:00,28.8,4.5,30.27,NNW,348,1.0,12.0,35,0.00,,,0.00,meteohub,2013-02-01 17:34:00,
2013-02-01 12:39:00,28.9,4.1,30.26,NNE,26,6.0,12.0,34,0.00,,,0.00,meteohub,2013-02-01 17:39:00,
2013-02-01 12:44:00,28.9,4.1,30.26,NNE,25,6.0,12.0,34,0.00,,,0.00,meteohub,2013-02-01 17:44:00,
2013-02-01 12:49:00,29.3,3.7,30.26,SW,219,0.0,12.0,33,0.00,,,0.00,meteohub,2013-02-01 17:49:00,
2013-02-01 12:54:00,30.0,5.0,30.26,ENE,68,0.0,11.0,34,0.00,,,0.00,meteohub,2013-02-01 17:54:00,
2013-02-01 12:59:00,30.6,4.3,30.26,SE,127,2.0,11.0,32,0.00,,,0.00,meteohub,2013-02-01 17:59:00,
2013-02-01 13:04:00,30.9,4.5,30.27,South,175,2.0,11.0,32,0.00,,,0.00,meteohub,2013-02-01 18:04:00,
2013-02-01 13:09:00,31.5,5.0,30.27,ENE,68,2.0,5.0,32,0.00,,,0.00,meteohub,2013-02-01 18:09:00,
2013-02-01 13:14:00,32.0,6.1,30.27,North,358,4.0,5.0,33,0.00,,,0.00,meteohub,2013-02-01 18:14:00,
2013-02-01 13:19:00,31.5,5.0,30.26,North,8,4.0,10.0,32,0.00,,,0.00,meteohub,2013-02-01 18:19:00,
2013-02-01 13:24:00,30.9,4.5,30.26,East,84,2.0,10.0,32,0.00,,,0.00,meteohub,2013-02-01 18:24:00,
2013-02-01 13:29:00,31.3,4.8,30.26,WSW,256,0.0,10.0,32,0.00,,,0.00,meteohub,2013-02-01 18:29:00,
2013-02-01 13:34:00,32.2,5.5,30.26,SW,225,1.0,10.0,32,0.00,,,0.00,meteohub,2013-02-01 18:34:00,
2013-02-01 13:39:00,32.7,6.1,30.26,NE,34,8.0,9.0,32,0.00,,,0.00,meteohub,2013-02-01 18:39:00,
2013-02-01 13:44:00,32.7,6.8,30.26,NE,36,2.0,3.0,33,0.00,,,0.00,meteohub,2013-02-01 18:44:00,
2013-02-01 13:49:00,32.7,6.1,30.26,West,266,0.0,8.0,32,0.00,,,0.00,meteohub,2013-02-01 18:49:00,
2013-02-01 13:54:00,32.9,7.0,30.26,NNE,26,2.0,8.0,33,0.00,,,0.00,meteohub,2013-02-01 18:54:00,
2013-02-01 13:59:00,32.5,5.9,30.26,NE,44,3.0,7.0,32,0.00,,,0.00,meteohub,2013-02-01 18:59:00,
2013-02-01 14:05:00,32.5,6.6,30.26,NE,36,4.0,7.0,33,0.00,,,0.00,meteohub,2013-02-01 19:05:00,
2013-02-01 14:10:00,32.5,7.9,30.26,West,278,1.0,7.0,35,0.00,,,0.00,meteohub,2013-02-01 19:10:00,
2013-02-01 14:15:00,32.7,6.8,30.26,ENE,58,5.0,7.0,33,0.00,,,0.00,meteohub,2013-02-01 19:15:00,
2013-02-01 14:20:00,32.4,7.2,30.26,NE,51,1.0,9.0,34,0.00,,,0.00,meteohub,2013-02-01 19:20:00,
2013-02-01 14:25:00,32.4,7.2,30.27,ENE,72,5.0,9.0,34,0.00,,,0.00,meteohub,2013-02-01 19:25:00,
2013-02-01 14:30:00,32.4,7.7,30.27,North,7,5.0,10.0,35,0.00,,,0.00,meteohub,2013-02-01 19:30:00,
2013-02-01 14:35:00,32.2,7.5,30.27,NNE,33,6.0,10.0,35,0.00,,,0.00,meteohub,2013-02-01 19:35:00,
2013-02-01 14:40:00,32.4,8.4,30.27,ENE,58,2.0,10.0,36,0.00,,,0.00,meteohub,2013-02-01 19:40:00,
2013-02-01 14:45:00,32.4,7.7,30.26,NE,49,5.0,10.0,35,0.00,,,0.00,meteohub,2013-02-01 19:45:00,
2013-02-01 14:50:00,32.4,7.7,30.27,NNE,31,0.0,13.0,35,0.00,,,0.00,meteohub,2013-02-01 19:50:00,
2013-02-01 14:55:00,32.5,7.9,30.27,SSW,211,0.0,13.0,35,0.00,,,0.00,meteohub,2013-02-01 19:55:00,
2013-02-01 15:00:00,32.7,8.8,30.27,NNE,31,7.0,8.0,36,0.00,,,0.00,meteohub,2013-02-01 20:00:00,
2013-02-01 15:05:00,32.5,8.6,30.27,East,79,1.0,9.0,36,0.00,,,0.00,meteohub,2013-02-01 20:05:00,
2013-02-01 15:10:00,32.0,8.6,30.27,NE,41,5.0,9.0,37,0.00,,,0.00,meteohub,2013-02-01 20:10:00,
2013-02-01 15:15:00,32.2,8.8,30.28,ESE,103,2.0,9.0,37,0.00,,,0.00,meteohub,2013-02-01 20:15:00,
2013-02-01 15:20:00,32.4,9.5,30.28,ESE,108,1.0,7.0,38,0.00,,,0.00,meteohub,2013-02-01 20:20:00,
2013-02-01 15:25:00,31.6,9.0,30.28,ENE,77,2.0,10.0,38,0.00,,,0.00,meteohub,2013-02-01 20:25:00,
2013-02-01 15:30:00,31.6,9.5,30.28,ENE,65,3.0,10.0,39,0.00,,,0.00,meteohub,2013-02-01 20:30:00,
2013-02-01 15:35:00,31.6,9.5,30.28,WNW,290,0.0,10.0,39,0.00,,,0.00,meteohub,2013-02-01 20:35:00,
2013-02-01 15:40:00,31.3,9.7,30.28,NE,44,9.0,9.0,40,0.00,,,0.00,meteohub,2013-02-01 20:40:00,
2013-02-01 15:45:00,31.3,9.7,30.28,East,87,6.0,11.0,40,0.00,,,0.00,meteohub,2013-02-01 20:45:00,
2013-02-01 15:50:00,30.9,9.5,30.28,ENE,74,4.0,11.0,40,0.00,,,0.00,meteohub,2013-02-01 20:50:00,
2013-02-01 15:55:00,30.9,10.0,30.28,ENE,66,3.0,11.0,41,0.00,,,0.00,meteohub,2013-02-01 20:55:00,
2013-02-01 16:00:00,30.7,9.9,30.28,East,95,0.0,7.0,41,0.00,,,0.00,meteohub,2013-02-01 21:00:00,
2013-02-01 16:05:00,30.7,9.9,30.28,ENE,78,7.0,8.0,41,0.00,,,0.00,meteohub,2013-02-01 21:05:00,
2013-02-01 16:11:00,30.6,10.2,30.28,ENE,71,2.0,10.0,42,0.00,,,0.00,meteohub,2013-02-01 21:11:00,
2013-02-01 16:15:00,29.8,9.5,30.29,NNE,33,4.0,11.0,42,0.00,,,0.00,meteohub,2013-02-01 21:15:00,
2013-02-01 16:21:00,29.8,10.0,30.29,East,81,2.0,11.0,43,0.00,,,0.00,meteohub,2013-02-01 21:21:00,
2013-02-01 16:26:00,29.8,10.0,30.29,NE,54,5.0,11.0,43,0.00,,,0.00,meteohub,2013-02-01 21:26:00,
2013-02-01 16:31:00,29.8,10.0,30.29,ESE,105,2.0,9.0,43,0.00,,,0.00,meteohub,2013-02-01 21:31:00,
2013-02-01 16:36:00,30.0,10.2,30.29,East,87,5.0,9.0,43,0.00,,,0.00,meteohub,2013-02-01 21:36:00,
2013-02-01 16:41:00,29.7,10.4,30.30,NNE,26,3.0,9.0,44,0.00,,,0.00,meteohub,2013-02-01 21:41:00,
2013-02-01 16:46:00,29.7,9.9,30.30,NNE,15,1.0,7.0,43,0.00,,,0.00,meteohub,2013-02-01 21:46:00,
2013-02-01 16:51:00,29.5,9.7,30.30,NE,39,2.0,7.0,43,0.00,,,0.00,meteohub,2013-02-01 21:51:00,
2013-02-01 16:56:00,29.3,9.5,30.30,NNE,33,1.0,7.0,43,0.00,,,0.00,meteohub,2013-02-01 21:56:00,
2013-02-01 17:01:00,29.5,9.7,30.30,East,93,0.0,6.0,43,0.00,,,0.00,meteohub,2013-02-01 22:01:00,
2013-02-01 17:06:00,29.7,9.9,30.30,ENE,58,3.0,6.0,43,0.00,,,0.00,meteohub,2013-02-01 22:06:00,
2013-02-01 17:11:00,29.5,9.7,30.30,East,85,0.0,4.0,43,0.00,,,0.00,meteohub,2013-02-01 22:11:00,
2013-02-01 17:16:00,29.1,9.9,30.31,NE,41,4.0,4.0,44,0.00,,,0.00,meteohub,2013-02-01 22:16:00,
2013-02-01 17:21:00,28.8,9.7,30.31,NE,53,4.0,4.0,44,0.00,,,0.00,meteohub,2013-02-01 22:21:00,
2013-02-01 17:26:00,28.4,9.7,30.31,NE,38,3.0,5.0,45,0.00,,,0.00,meteohub,2013-02-01 22:26:00,
2013-02-01 17:31:00,28.0,9.5,30.31,ENE,58,0.0,7.0,45,0.00,,,0.00,meteohub,2013-02-01 22:31:00,
2013-02-01 17:36:00,27.7,9.7,30.31,East,84,2.0,7.0,46,0.00,,,0.00,meteohub,2013-02-01 22:36:00,
2013-02-01 17:41:00,27.3,9.7,30.31,NE,36,2.0,5.0,47,0.00,,,0.00,meteohub,2013-02-01 22:41:00,
2013-02-01 17:46:00,27.0,9.9,30.31,NE,49,0.0,4.0,48,0.00,,,0.00,meteohub,2013-02-01 22:46:00,
2013-02-01 17:51:00,26.6,10.0,30.31,NE,55,1.0,5.0,49,0.00,,,0.00,meteohub,2013-02-01 22:51:00,
2013-02-01 17:56:00,26.4,9.9,30.31,SE,133,0.0,5.0,49,0.00,,,0.00,meteohub,2013-02-01 22:56:00,
2013-02-01 18:01:00,26.1,10.0,30.31,ENE,71,3.0,4.0,50,0.00,,,0.00,meteohub,2013-02-01 23:01:00,
2013-02-01 18:06:00,25.7,10.0,30.31,NNE,25,0.0,5.0,51,0.00,,,0.00,meteohub,2013-02-01 23:06:00,
2013-02-01 18:11:00,25.3,9.7,30.31,NNE,25,2.0,5.0,51,0.00,,,0.00,meteohub,2013-02-01 23:11:00,
2013-02-01 18:16:00,25.2,10.0,30.32,ENE,77,2.0,5.0,52,0.00,,,0.00,meteohub,2013-02-01 23:16:00,
2013-02-01 18:21:00,24.8,9.7,30.32,NE,35,2.0,5.0,52,0.00,,,0.00,meteohub,2013-02-01 23:21:00,
2013-02-01 18:26:00,24.6,9.9,30.32,ENE,77,2.0,5.0,53,0.00,,,0.00,meteohub,2013-02-01 23:26:00,
2013-02-01 18:31:00,24.4,9.3,30.32,ENE,70,0.0,4.0,52,0.00,,,0.00,meteohub,2013-02-01 23:31:00,
2013-02-01 18:36:00,24.3,9.1,30.32,East,86,1.0,4.0,52,0.00,,,0.00,meteohub,2013-02-01 23:36:00,
2013-02-01 18:41:00,24.1,9.5,30.33,East,80,0.0,3.0,53,0.00,,,0.00,meteohub,2013-02-01 23:41:00,
2013-02-01 18:46:00,23.7,9.1,30.33,ENE,67,1.0,4.0,53,0.00,,,0.00,meteohub,2013-02-01 23:46:00,
2013-02-01 18:51:00,23.5,9.3,30.34,East,89,0.0,4.0,54,0.00,,,0.00,meteohub,2013-02-01 23:51:00,
2013-02-01 18:56:00,23.5,9.3,30.33,NE,43,0.0,2.0,54,0.00,,,0.00,meteohub,2013-02-01 23:56:00,
2013-02-01 19:01:00,23.4,9.5,30.34,NE,47,1.0,2.0,55,0.00,,,0.00,meteohub,2013-02-02 00:01:00,
2013-02-01 19:06:00,23.2,9.0,30.34,ESE,105,0.0,1.0,54,0.00,,,0.00,meteohub,2013-02-02 00:06:00,
2013-02-01 19:11:00,23.0,8.8,30.34,ENE,58,0.0,2.0,54,0.00,,,0.00,meteohub,2013-02-02 00:11:00,
2013-02-01 19:16:00,22.8,8.6,30.35,ENE,69,0.0,2.0,54,0.00,,,0.00,meteohub,2013-02-02 00:16:00,
2013-02-01 19:21:00,22.6,9.0,30.34,East,92,0.0,2.0,55,0.00,,,0.00,meteohub,2013-02-02 00:21:00,
2013-02-01 19:26:00,22.5,8.8,30.35,East,96,0.0,2.0,55,0.00,,,0.00,meteohub,2013-02-02 00:26:00,
2013-02-01 19:32:00,22.5,9.1,30.35,ESE,113,0.0,1.0,56,0.00,,,0.00,meteohub,2013-02-02 00:32:00,
2013-02-01 19:37:00,22.1,8.8,30.35,ESE,113,0.0,2.0,56,0.00,,,0.00,meteohub,2013-02-02 00:37:00,
2013-02-01 19:42:00,21.9,9.3,30.35,SW,218,0.0,2.0,58,0.00,,,0.00,meteohub,2013-02-02 00:42:00,
2013-02-01 19:47:00,21.7,9.7,30.35,SW,218,0.0,1.0,59,0.00,,,0.00,meteohub,2013-02-02 00:47:00,
2013-02-01 19:52:00,21.4,10.0,30.35,SW,218,0.0,1.0,61,0.00,,,0.00,meteohub,2013-02-02 00:52:00,
2013-02-01 19:57:00,20.8,9.9,30.35,SW,218,0.0,0.0,62,0.00,,,0.00,meteohub,2013-02-02 00:57:00,
2013-02-01 20:02:00,20.7,9.7,30.35,SW,215,0.0,0.0,62,0.00,,,0.00,meteohub,2013-02-02 01:02:00,
2013-02-01 20:07:00,20.5,9.5,30.36,SW,215,0.0,0.0,62,0.00,,,0.00,meteohub,2013-02-02 01:07:00,
2013-02-01 20:12:00,20.5,9.5,30.36,SW,214,0.0,0.0,62,0.00,,,0.00,meteohub,2013-02-02 01:12:00,
2013-02-01 20:17:00,20.1,9.5,30.36,SW,215,0.0,0.0,63,0.00,,,0.00,meteohub,2013-02-02 01:17:00,
2013-02-01 20:22:00,19.9,9.7,30.36,SW,215,0.0,0.0,64,0.00,,,0.00,meteohub,2013-02-02 01:22:00,
2013-02-01 20:27:00,19.8,9.9,30.36,SW,215,0.0,0.0,65,0.00,,,0.00,meteohub,2013-02-02 01:27:00,
2013-02-01 20:32:00,19.6,10.4,30.37,SW,215,0.0,0.0,67,0.00,,,0.00,meteohub,2013-02-02 01:32:00,
2013-02-01 20:37:00,19.4,9.5,30.37,SW,215,0.0,0.0,65,0.00,,,0.00,meteohub,2013-02-02 01:37:00,
2013-02-01 20:42:00,19.6,10.8,30.37,SSW,213,0.0,0.0,68,0.00,,,0.00,meteohub,2013-02-02 01:42:00,
2013-02-01 20:47:00,19.6,9.7,30.37,SW,214,0.0,0.0,65,0.00,,,0.00,meteohub,2013-02-02 01:47:00,
2013-02-01 20:52:00,19.6,9.7,30.37,SSE,163,0.0,0.0,65,0.00,,,0.00,meteohub,2013-02-02 01:52:00,
2013-02-01 20:57:00,19.4,9.9,30.37,SSE,163,0.0,0.0,66,0.00,,,0.00,meteohub,2013-02-02 01:57:00,
2013-02-01 21:02:00,19.2,10.0,30.37,SSE,163,0.0,0.0,67,0.00,,,0.00,meteohub,2013-02-02 02:02:00,
2013-02-01 21:07:00,19.0,10.2,30.37,SSE,163,0.0,0.0,68,0.00,,,0.00,meteohub,2013-02-02 02:07:00,
2013-02-01 21:12:00,18.9,9.7,30.37,SSE,163,0.0,0.0,67,0.00,,,0.00,meteohub,2013-02-02 02:12:00,
2013-02-01 21:17:00,18.7,9.9,30.37,SSE,162,0.0,0.0,68,0.00,,,0.00,meteohub,2013-02-02 02:17:00,
2013-02-01 21:22:00,18.5,10.0,30.37,SSE,163,0.0,0.0,69,0.00,,,0.00,meteohub,2013-02-02 02:22:00,
2013-02-01 21:27:00,18.3,10.2,30.37,SSE,162,0.0,0.0,70,0.00,,,0.00,meteohub,2013-02-02 02:27:00,
2013-02-01 21:32:00,18.3,10.6,30.37,SSE,162,0.0,0.0,71,0.00,,,0.00,meteohub,2013-02-02 02:32:00,
2013-02-01 21:37:00,18.3,10.2,30.37,East,86,0.0,0.0,70,0.00,,,0.00,meteohub,2013-02-02 02:37:00,
2013-02-01 21:42:00,18.3,9.9,30.37,South,170,1.0,0.0,69,0.00,,,0.00,meteohub,2013-02-02 02:42:00,
2013-02-01 21:47:00,18.5,9.7,30.37,East,84,0.0,3.0,68,0.00,,,0.00,meteohub,2013-02-02 02:47:00,
2013-02-01 21:52:00,18.5,10.4,30.38,East,84,0.0,3.0,70,0.00,,,0.00,meteohub,2013-02-02 02:52:00,
2013-02-01 21:57:00,18.1,10.0,30.38,East,84,0.0,3.0,70,0.00,,,0.00,meteohub,2013-02-02 02:57:00,
2013-02-01 22:02:00,18.1,10.0,30.38,East,85,0.0,0.0,70,0.00,,,0.00,meteohub,2013-02-02 03:02:00,
2013-02-01 22:07:00,18.0,10.2,30.38,East,86,0.0,0.0,71,0.00,,,0.00,meteohub,2013-02-02 03:07:00,
2013-02-01 22:12:00,17.8,10.0,30.38,East,85,0.0,0.0,71,0.00,,,0.00,meteohub,2013-02-02 03:12:00,
2013-02-01 22:17:00,17.4,9.7,30.39,East,86,0.0,0.0,71,0.00,,,0.00,meteohub,2013-02-02 03:17:00,
2013-02-01 22:22:00,17.4,9.7,30.39,East,86,0.0,0.0,71,0.00,,,0.00,meteohub,2013-02-02 03:22:00,
2013-02-01 22:27:00,17.2,9.5,30.38,East,86,0.0,0.0,71,0.00,,,0.00,meteohub,2013-02-02 03:27:00,
2013-02-01 22:32:00,17.2,9.1,30.38,East,85,0.0,0.0,70,0.00,,,0.00,meteohub,2013-02-02 03:32:00,
2013-02-01 22:37:00,17.1,9.3,30.38,East,84,0.0,0.0,71,0.00,,,0.00,meteohub,2013-02-02 03:37:00,
2013-02-01 22:42:00,17.2,9.9,30.38,East,84,0.0,0.0,72,0.00,,,0.00,meteohub,2013-02-02 03:42:00,
2013-02-01 22:47:00,17.2,10.0,30.39,South,179,0.0,1.0,73,0.00,,,0.00,meteohub,2013-02-02 03:47:00,
2013-02-01 22:52:00,17.2,10.0,30.39,South,178,0.0,1.0,73,0.00,,,0.00,meteohub,2013-02-02 03:52:00,
2013-02-01 22:57:00,17.4,10.2,30.38,NE,46,0.0,1.0,73,0.00,,,0.00,meteohub,2013-02-02 03:57:00,
2013-02-01 23:02:00,17.4,9.9,30.39,SE,139,2.0,2.0,72,0.00,,,0.00,meteohub,2013-02-02 04:02:00,
2013-02-01 23:07:00,17.6,9.9,30.39,SW,226,0.0,3.0,71,0.00,,,0.00,meteohub,2013-02-02 04:07:00,
2013-02-01 23:12:00,17.6,9.9,30.39,SSE,150,0.0,3.0,71,0.00,,,0.00,meteohub,2013-02-02 04:12:00,
2013-02-01 23:17:00,17.4,9.7,30.39,ESE,112,0.0,3.0,71,0.00,,,0.00,meteohub,2013-02-02 04:17:00,
2013-02-01 23:22:00,17.6,9.9,30.38,NNE,18,0.0,1.0,71,0.00,,,0.00,meteohub,2013-02-02 04:22:00,
2013-02-01 23:27:00,17.4,10.6,30.39,WNW,299,0.0,1.0,74,0.00,,,0.00,meteohub,2013-02-02 04:27:00,
2013-02-01 23:32:00,17.4,10.6,30.39,WNW,299,0.0,1.0,74,0.00,,,0.00,meteohub,2013-02-02 04:32:00,
2013-02-01 23:37:00,17.2,10.4,30.40,WNW,301,0.0,1.0,74,0.00,,,0.00,meteohub,2013-02-02 04:37:00,
2013-02-01 23:42:00,17.1,10.2,30.40,WNW,301,0.0,1.0,74,0.00,,,0.00,meteohub,2013-02-02 04:42:00,
2013-02-01 23:47:00,17.1,10.6,30.40,WNW,300,0.0,1.0,75,0.00,,,0.00,meteohub,2013-02-02 04:47:00,
2013-02-01 23:52:00,16.9,10.6,30.40,SE,143,1.0,0.0,76,0.00,,,0.00,meteohub,2013-02-02 04:52:00,
2013-02-01 23:57:00,16.9,10.9,30.39,SE,142,1.0,1.0,77,0.00,,,0.00,meteohub,2013-02-02 04:57:00,